Address 0x8d5c7e64f37c1f08a052d725680c31efcb60d0fd

Txn Hash Method
Block
From
To
Value [Txn Fee]
0x048a8b49f63c3816b7aca572c092f685483e0efa0039ffe0159269ecd29a7e4d0x6080604098556442021-06-19 0:57:5297 days 2 hrs ago0x8d5c7e64f37c1f08a052d725680c31efcb60d0fdOUT Contract Creation0 BNB0.00914232
0x2f680f03b903a85805e48a7e943d657f16d3fc68d180b9e85aa381189d1b4b14Set Fund88555652021-05-15 6:09:56131 days 21 hrs ago0x8d5c7e64f37c1f08a052d725680c31efcb60d0fdOUT 0x8ee9b9edaad691ec3c86e32ca33fd4cfe954bb010 BNB0.00133832
0x3a0e46a5334c08dcd2a219021a3ade7005974dae734132841b0c7a2e166cbdb3Transfer88553602021-05-15 5:59:41131 days 21 hrs ago0x8d5c7e64f37c1f08a052d725680c31efcb60d0fdOUT 0x8ee9b9edaad691ec3c86e32ca33fd4cfe954bb010 BNB0.00076948
0x417fd87cde4a635a77200cd88024e2f568196935fce9bd3bde01f1ed2a33a678Set Completed88552502021-05-15 5:54:11131 days 21 hrs ago0x8d5c7e64f37c1f08a052d725680c31efcb60d0fdOUT 0x5507efafb425e7315922c84c04bb6b712dc062ed0 BNB0.0005526
0x4c2075115d647d5927907c62e4d202d780e6dc4140f5cb6a9e271f83f72131360x6080604088552462021-05-15 5:53:59131 days 21 hrs ago0x8d5c7e64f37c1f08a052d725680c31efcb60d0fdOUT Contract Creation0 BNB0.08510402
0xc73dbdb71275f899850f597103d731c45bf45f8c6b4645bedb33deee38a361efSet Completed88552432021-05-15 5:53:50131 days 21 hrs ago0x8d5c7e64f37c1f08a052d725680c31efcb60d0fdOUT 0x5507efafb425e7315922c84c04bb6b712dc062ed0 BNB0.0008526
0x1723ba782555bb8ac59d5ac9adea9ff178de51df8f080f14b4958a59c89918040x6080604088552382021-05-15 5:53:35131 days 21 hrs ago0x8d5c7e64f37c1f08a052d725680c31efcb60d0fdOUT Contract Creation0 BNB0.00914208
0xf5aa01645cd23465b1854b68029e2eb7fe6b7b2014256baa57016c9512663c380x6080604088548902021-05-15 5:36:11131 days 22 hrs ago0x8d5c7e64f37c1f08a052d725680c31efcb60d0fdOUT Contract Creation0 BNB0.01165666
0xb863d516b01278abb96d8a3f738eb6ed85ca5565ba53bb4c4ff292aa05c43008Set Completed88548882021-05-15 5:36:05131 days 22 hrs ago0x8d5c7e64f37c1f08a052d725680c31efcb60d0fdOUT 0x649a6eb92c8629f08a744730f9edf95d1c8c5da30 BNB0.0008526
0xd4b603c1c2fd42f0e68a029e69e00d661a61b5a1f4743a2213b5baa465e4afb40x6080604088548832021-05-15 5:35:50131 days 22 hrs ago0x8d5c7e64f37c1f08a052d725680c31efcb60d0fdOUT Contract Creation0 BNB0.00914208
0x19cfdd640b0143443a84c3a73512893789c8c435a5f33ad0422db30fd2b8288bSet Completed88548542021-05-15 5:34:23131 days 22 hrs ago0x8d5c7e64f37c1f08a052d725680c31efcb60d0fdOUT 0xc541b1e2622b73c3a298ab6afadb30c908c3457b0 BNB0.0008526
0x35529a33ec6a08a575640cdd5bb270b841a9c25143f148dfc1b40e1b46c439d30x6080604088548502021-05-15 5:34:11131 days 22 hrs ago0x8d5c7e64f37c1f08a052d725680c31efcb60d0fdOUT Contract Creation0 BNB0.00914208
0x0882ef335202e43e8b112777c7a7a8b3d024426fbb3337899a47dd37d5ddb7d9Include In Rewar...88534262021-05-15 4:22:59131 days 23 hrs ago0x8d5c7e64f37c1f08a052d725680c31efcb60d0fdOUT 0x632864b80a22fe309bc6dd68936475a29072c50f0 BNB0.00028618
0xade88a77f5f8663b5eaa375bd7aeeab4cdfc9771e7a75bbe5ebefc029e5c0c86Transfer88530262021-05-15 4:02:59131 days 23 hrs ago0x8d5c7e64f37c1f08a052d725680c31efcb60d0fdOUT 0x632864b80a22fe309bc6dd68936475a29072c50f0 BNB0.0014832
0x3fbbb7323e3d0ec549d3e13c46c31a1512391aa86bb272c16879ccd5c59f54f1Exclude From Rew...88529312021-05-15 3:58:14131 days 23 hrs ago0x8d5c7e64f37c1f08a052d725680c31efcb60d0fdOUT 0x632864b80a22fe309bc6dd68936475a29072c50f0 BNB0.00113679
0x5e1ecfe6dab3519e891c1cb74828b884c958fa71c13dac49794abb9c992c58b7Transfer88521802021-05-15 3:20:41132 days 19 mins ago0x8d5c7e64f37c1f08a052d725680c31efcb60d0fdOUT 0x632864b80a22fe309bc6dd68936475a29072c50f0 BNB0.0014471
0xd4d88145a21715077df760be359adbfb21befaf3369ff0e5fff8a5a35d70c767Exclude From Rew...88521372021-05-15 3:18:32132 days 21 mins ago0x8d5c7e64f37c1f08a052d725680c31efcb60d0fdOUT 0x632864b80a22fe309bc6dd68936475a29072c50f0 BNB0.00101384
0x207643eaaf879b973d9b92f23edce0c1ea3969ac43154f0aad51a05f3fbf4971Transfer88520912021-05-15 3:16:14132 days 23 mins ago0x8d5c7e64f37c1f08a052d725680c31efcb60d0fdOUT 0x632864b80a22fe309bc6dd68936475a29072c50f0 BNB0.00141028
0x112819f0e38ac7e86e1da42175f42d83ff22859758bf564bbe34e48bf934dcd2_reflect Fee88513032021-05-15 2:36:50132 days 1 hr ago0x8d5c7e64f37c1f08a052d725680c31efcb60d0fdOUT 0x632864b80a22fe309bc6dd68936475a29072c50f0 BNB0.0009895
0xeef6561dfc9deed6eb6d125bbf9e7417cd94e88ca9e41e506cf5f18f9afa006dTransfer88512132021-05-15 2:32:20132 days 1 hr ago0x8d5c7e64f37c1f08a052d725680c31efcb60d0fdOUT 0x632864b80a22fe309bc6dd68936475a29072c50f0 BNB0.00162616
0xaaa2bd4f515a19a025bcabc2f5297618d923f51cdc9e158f9b06186a97653b7aTransfer88511742021-05-15 2:30:23132 days 1 hr ago0x8d5c7e64f37c1f08a052d725680c31efcb60d0fdOUT 0x632864b80a22fe309bc6dd68936475a29072c50f0 BNB0.00094114
0x56a5a20d4145b0d45d6ea5f3420f185ec37596144299a68d677e431f1ca633e8_reflect Fee88510992021-05-15 2:26:38132 days 1 hr ago0x8d5c7e64f37c1f08a052d725680c31efcb60d0fdOUT 0x632864b80a22fe309bc6dd68936475a29072c50f0 BNB0.00049475
0x5851890441901c81f6c7c22ff836eb26f8f63079ef6829e597120746651d11e3Set Completed88510462021-05-15 2:23:59132 days 1 hr ago0x8d5c7e64f37c1f08a052d725680c31efcb60d0fdOUT 0x8a3ff659108e98a4d0bcbb5a7a89c4a925eb17190 BNB0.0005526
0x3932aa5fcb28d4fb73757f4bdf4c03c2eefdbf3831c9666aeb62cb85ff7b14130x6080604088510422021-05-15 2:23:47132 days 1 hr ago0x8d5c7e64f37c1f08a052d725680c31efcb60d0fdOUT Contract Creation0 BNB0.07273522
0xaafdb737416983116767f1ebba35cf4d46c782e248d621a951f07800e43fff44Set Completed88510392021-05-15 2:23:38132 days 1 hr ago0x8d5c7e64f37c1f08a052d725680c31efcb60d0fdOUT 0x8a3ff659108e98a4d0bcbb5a7a89c4a925eb17190 BNB0.0008526
[ Download CSV Export 
Parent Txn Hash Block From To Value
Loading

Contract Name:
0 BNB

Compiler Version
0

Optimization Enabled:
0 BNB

Other Settings:
-NA-
Block Transaction Gas Used Reward
Age Block Fee Address BC Fee Address Voting Power Jailed Incoming
Block Uncle Number Difficulty Gas Used Reward
Loading